Location: Epalinges
(46.5518°N, 6.6683°E)
Time: 16:35:46
(UTC+00:00)

Cosmos 540 Rocket - Pass Details

Date: 20 June 2021
Orbit: 739 x 754 km, 74.1° (Epoch: 03 August)

Event Time Altitude Azimuth Distance (km) Brightness Sun altitude
Exits shadow 00:15:11 28° 145° (SE) 1,352 4.4 -19.4°
Maximum altitude 00:17:00 38° 103° (ESE) 1,118 4.3 -19.4°
Drops below altitude 10° 00:21:43 10° 36° (NE) 2,260 6.9 -19.2°
Sets 00:24:12 0° 29° (NNE) 3,189 8.1 -19.1°
